Погода в Коршеве

Украина / Ивано-Франковская область     48°40′23″N   25°01′15″E
темп.,
°C
ветер,
м/с
пор.,
м/с
влажн.,
%
обл.,
%
осадки,
мм/ч
давл.,
гПа
погр.,
м
14 апреля, ср
ср1400:00+4сз4785100 0.0 1018404
03:00+4сз4586100 0.0 1016352
06:00+3сз4489100 0.1 1015353
09:00+2зсз4796100 0.6 1015298
12:00+2зсз5899100 0.9 1016292
15:00+2сз5896100 1.0 1016465
18:00+1зсз61096100 0.1 1016479
21:00+1сз61096100 0.1 1017519
15 апреля, чт
чт1500:00+1сз61096100 0.1 1017509
03:000сз61097100 0.6 1017486
06:000зсз51197100 0.6 1017460
09:00+1сз51198100 1.8 1018459
12:00+2сз51098100 0.8 1018466
15:00+3сз7991100 0.9 1018654
18:00+4ссз61087100 0.0 1018704
21:00+1сз6139399 0.1 1019588
16 апреля, пт
пт1600:00+1сз61292100 0.0 1018633
03:00+1сз51191100 0.0 1018577
06:00+1сз5128999 0.0 1017480
09:00+3сз61180100 0.0 1017649
12:00+7сз7963100 0.0 10171344
15:00+8сз7963100 0.0 10171273
18:00+7сз6971100 0.0 1018930
21:00+3ссз389771 0.0 1020297
17 апреля, сб
сб1700:00+3сз3592100 0.0 1020368
03:00+3зсз228790 0.0 1020300
06:00+1ююз228888 0.0 102148
09:00+4ююв22725 0.0 1021321
12:00+9вюв335817 0.0 10201080
15:00+10вюв4456100 0.0 10191438
18:00+10вюв456268 0.0 1019881
21:00+6вюв377882 0.0 1020162
18 апреля, вс
вс1800:00+6вюв367792 0.0 1020150
03:00+6вюв3777100 0.0 1020223
06:00+6вюв3877100 0.0 1019281
09:00+7вюв577499 0.0 1019491
12:00+11вюв686276 0.0 10191381
15:00+13юв685097 0.1 10181917
18:00+12юв5757100 0.0 10181426
21:00+9ююв51073100 0.0 1019611